軌道要素
Epoch 2018 Feb. 11.0 TT = JDT 2458160.5
T 2018 Feb. 26.93303 TT Rudenko
q 1.5429343 (2000.0) P Q
z -0.0008842 Peri. 134.68676 +0.93845404 -0.00779336
+/-0.0000141 Node 130.87482 -0.23726094 -0.74110398
e 1.0013643 Incl. 152.82678 +0.25102042 -0.67134504
From 239 observations 2017 Feb. 16-2018 Jan. 19, mean residual 0".7.
|